INTELSAT 18 (IS-18)

Last updated on Oct. 27, 2020, 5:52 a.m. UTC

1 37834U 11056A   20300.73790472  .00000043  00000-0  00000+0 0  9998
2 37834   0.0449  70.7477 0001905 134.3254 276.1626  1.00273169 33200
UTC
Height (km)
Latitude
Longitude
Inclination
Orbital Period
UTC large
Height (km)
Speed (km/s)
/
Latitude / Longitude
Inclination (degrees)
Orbital Period (minutes)
Azimuth
Elevation
Range (km)
Doppler Factor
iOS Compass Heading
iOS Angle

Next 30 passes for location: Hong Kong

Rise time Rise Azimuth (degrees) Set time Set Azimuth (degrees) Duration Max altitude (degrees)

No matching passes for this satellites